CAPELLA-6 (WHITNEY) (48605 NORAD) Tracking and Keplerian Element Data

This shows tracking and keplerian element data for the satellite.

Feedback or suggestion? Click here.




ElementValue
Catalog48605
NameCAPELLA-6 (WHITNEY)
Epoch Orbit2277
Epoch Day287.93243066
Epoch Year2021
RAAN161.9407
Inclination53.0355
Eccentricity0.0014675
Argument of Perigee41.9005
Mean Anonmoly318.3101
Mean Motion14.97765721
Decay Rate4.76E-06
L11 48605U 21041BE 21287.93243066 .00000476 00000-0 62356-4 0 9997
L22 48605 53.0355 161.9407 0014675 41.9005 318.3101 14.97765721 22770

Live tracking and technical data element details for CAPELLA-6 (WHITNEY) (NORAD 48605). CAPELLA-6 (WHITNEY) can be tracked NOW for your location showing map with azimuth and elevation plus other details from your city location.

Track the satellite on the map from your city or location and see movement details for azimuth, elevation, latitude, longitude, range, height, and movement on the map or in text.







IsCatalogInMostPopularTable: catalog: 48605, numindb: 37
Update: records affected: 1



GetName: 48605 CAPELLA-6 (WHITNEY)

Hit Count: updated at: Tue, 19 Oct 2021 07:55:45 GMT